Weather History for Alva, OK

Change the Weather History Date:

Monday, July 29, 2013

  Actual Average Record
Temperature  
Mean Temperature 80 °F -  
Max Temperature 91 °F 95 °F 112 °F (1952)
Min Temperature 68 °F 69 °F 55 °F (2005)
Cooling Degree Days 14    
Growing Degree Days 30 (Base 50)    
Moisture  
Dew Point 69 °F    
Average Humidity 76    
Maximum Humidity 94    
Minimum Humidity 52    
Precipitation  
Precipitation 0.08 in - - ()
Sea Level Pressure  
Sea Level Pressure 29.92 in    
Wind  
Wind Speed 13 mph (SE)    
Max Wind Speed 31 mph    
Max Gust Speed 40 mph    
Visibility 9 miles    
Events Rain , Thunderstorm    
Averages and records for this station are not official NWS values.
T = Trace of Precipitation, MM = Missing Value Source: NWS Daily Summary

Daily Weather History Graph

Daily Weather History Graph

Search for Another Location

Airport:

Trip Planner

Search our weather history database for the weather conditions in past years. The results will help you decide how hot, cold, wet, or windy it might be!

Date:

Astronomy

Jul. 29, 2013 Rise Set
Actual Time 6:38 AM CDT 8:43 PM CDT
Civil Twilight 6:09 AM CDT 9:12 PM CDT
Nautical Twilight 5:34 AM CDT 9:47 PM CDT
Astronomical Twilight 4:56 AM CDT 10:25 PM CDT
Moon 12:19 AM CDT (7/29) 2:08 PM CDT (7/29)
Length of Visible Light 15h 02m
Length of Day
14h 05m
Waning Gibbous, 50% of the Moon is Illuminated
Jul 29
Waning Gibbous
Jul 29
Last Quarter
Aug 6
New
Aug 14
First Quarter
Aug 20
Full

Hourly Weather History & Observations

Time (CDT) Temp. Heat Index Dew Point Humidity Pressure Visibility Wind Dir Wind Speed Gust Speed Precip Events Conditions
12:00 AM 71.6 °F - 66.2 °F 83% 29.96 in 10.0 mi SE 13.8 mph - N/A   Partly Cloudy
12:20 AM 71.6 °F - 66.2 °F 83% 29.97 in 10.0 mi ESE 12.7 mph - N/A   Scattered Clouds
12:40 AM 71.6 °F - 66.2 °F 83% 29.96 in 10.0 mi SE 15.0 mph - N/A   Partly Cloudy
1:00 AM 69.8 °F - 66.2 °F 88% 29.96 in 10.0 mi ESE 11.5 mph - N/A   Clear
1:20 AM 69.8 °F - 66.2 °F 88% 29.96 in 10.0 mi ESE 10.4 mph - N/A   Scattered Clouds
1:40 AM 69.8 °F - 66.2 °F 88% 29.96 in 10.0 mi ESE 9.2 mph - N/A   Scattered Clouds
2:00 AM 68.0 °F - 66.2 °F 94% 29.95 in 10.0 mi ESE 8.1 mph - N/A   Clear
2:20 AM 68.0 °F - 66.2 °F 94% 29.95 in 10.0 mi ESE 8.1 mph - N/A   Clear
2:40 AM 68.0 °F - 66.2 °F 94% 29.94 in 10.0 mi East 8.1 mph - N/A   Clear
3:00 AM 68.0 °F - 66.2 °F 94% 29.94 in 10.0 mi East 9.2 mph - N/A   Clear
3:20 AM 68.0 °F - 66.2 °F 94% 29.95 in 10.0 mi ESE 8.1 mph - N/A   Clear
3:40 AM 68.0 °F - 66.2 °F 94% 29.95 in 10.0 mi East 4.6 mph - N/A   Clear
4:00 AM 68.0 °F - 66.2 °F 94% 29.96 in 10.0 mi East 5.8 mph - N/A   Clear
4:20 AM 68.0 °F - 66.2 °F 94% 29.96 in 10.0 mi ESE 6.9 mph - N/A   Clear
4:40 AM 68.0 °F - 66.2 °F 94% 29.96 in 10.0 mi ESE 8.1 mph - N/A   Clear
5:00 AM 68.0 °F - 66.2 °F 94% 29.95 in 10.0 mi East 6.9 mph - N/A   Clear
5:20 AM 68.0 °F - 66.2 °F 94% 29.95 in 10.0 mi ESE 6.9 mph - N/A   Partly Cloudy
5:40 AM 68.0 °F - 66.2 °F 94% 29.95 in 10.0 mi ESE 8.1 mph - N/A   Scattered Clouds
6:00 AM 69.8 °F - 68.0 °F 94% 29.96 in 10.0 mi East 5.8 mph - N/A   Mostly Cloudy
6:20 AM 69.8 °F - 68.0 °F 94% 29.96 in 10.0 mi ESE 5.8 mph - N/A   Overcast
6:40 AM 69.8 °F - 68.0 °F 94% 29.96 in 10.0 mi ESE 8.1 mph - N/A   Mostly Cloudy
7:00 AM 69.8 °F - 68.0 °F 94% 29.95 in 9.0 mi ESE 8.1 mph - N/A   Mostly Cloudy
7:20 AM 69.8 °F - 68.0 °F 94% 29.95 in 7.0 mi ESE 8.1 mph - N/A   Overcast
7:40 AM 69.8 °F - 68.0 °F 94% 29.95 in 8.0 mi ESE 9.2 mph - N/A   Overcast
8:00 AM 71.6 °F - 68.0 °F 88% 29.95 in 9.0 mi SE 9.2 mph - N/A   Mostly Cloudy
8:20 AM 71.6 °F - 68.0 °F 88% 29.95 in 9.0 mi SE 12.7 mph 16.1 mph N/A   Mostly Cloudy
8:45 AM 73.4 °F - 68.0 °F 83% 29.95 in 10.0 mi SSE 13.8 mph 19.6 mph N/A   Mostly Cloudy
9:00 AM 73.4 °F - 68.0 °F 83% 29.95 in 10.0 mi SSE 15.0 mph 20.7 mph N/A   Scattered Clouds
9:20 AM 75.2 °F - 68.0 °F 78% 29.95 in 10.0 mi SSE 17.3 mph - N/A   Scattered Clouds
9:40 AM 75.2 °F - 68.0 °F 78% 29.95 in 10.0 mi SSE 13.8 mph 21.9 mph N/A   Partly Cloudy
10:05 AM 78.8 °F - 68.0 °F 69% 29.95 in 10.0 mi South 17.3 mph 23.0 mph N/A   Mostly Cloudy
10:20 AM 80.6 °F 83.9 °F 69.8 °F 70% 29.95 in 10.0 mi South 17.3 mph - N/A   Scattered Clouds
10:45 AM 82.4 °F 86.3 °F 69.8 °F 66% 29.94 in 10.0 mi South 19.6 mph 23.0 mph N/A   Scattered Clouds
11:00 AM 84.2 °F 89.6 °F 71.6 °F 66% 29.93 in 10.0 mi South 18.4 mph - N/A   Scattered Clouds
11:20 AM 84.2 °F 89.6 °F 71.6 °F 66% 29.93 in 10.0 mi South 20.7 mph 24.2 mph N/A   Scattered Clouds
11:40 AM 86.0 °F 91.8 °F 71.6 °F 62% 29.92 in 10.0 mi South 18.4 mph 28.8 mph N/A   Scattered Clouds
12:00 PM 87.8 °F 93.8 °F 71.6 °F 58% 29.92 in 10.0 mi South 18.4 mph 26.5 mph N/A   Scattered Clouds
12:20 PM 86.0 °F 90.4 °F 69.8 °F 58% 29.92 in 10.0 mi SSW 17.3 mph 26.5 mph N/A   Scattered Clouds
12:40 PM 87.8 °F 93.8 °F 71.6 °F 58% 29.92 in 10.0 mi South 20.7 mph 27.6 mph N/A   Mostly Cloudy
1:05 PM 86.0 °F 91.8 °F 71.6 °F 62% 29.91 in 9.0 mi South 17.3 mph 25.3 mph N/A   Scattered Clouds
1:25 PM 86.0 °F 91.8 °F 71.6 °F 62% 29.91 in 10.0 mi South 18.4 mph - N/A   Mostly Cloudy
1:40 PM 87.8 °F 93.8 °F 71.6 °F 58% 29.90 in 10.0 mi South 17.3 mph 23.0 mph N/A   Overcast
2:00 PM 87.8 °F 93.8 °F 71.6 °F 58% 29.90 in 10.0 mi South 17.3 mph 21.9 mph N/A   Mostly Cloudy
2:20 PM 91.4 °F 98.4 °F 71.6 °F 52% 29.89 in 10.0 mi South 19.6 mph 25.3 mph N/A   Mostly Cloudy
2:40 PM 91.4 °F 98.4 °F 71.6 °F 52% 29.89 in 9.0 mi South 18.4 mph 26.5 mph N/A   Partly Cloudy
3:00 PM 91.4 °F 98.4 °F 71.6 °F 52% 29.89 in 9.0 mi South 18.4 mph 24.2 mph N/A   Scattered Clouds
3:20 PM 91.4 °F 100.1 °F 73.4 °F 55% 29.87 in 10.0 mi SSE 19.6 mph 27.6 mph N/A   Scattered Clouds
3:40 PM 91.4 °F 98.4 °F 71.6 °F 52% 29.86 in 9.0 mi South 21.9 mph 28.8 mph N/A   Scattered Clouds
4:00 PM 91.4 °F 100.1 °F 73.4 °F 55% 29.85 in 10.0 mi South 18.4 mph 26.5 mph N/A   Mostly Cloudy
4:20 PM 91.4 °F 98.4 °F 71.6 °F 52% 29.84 in 10.0 mi South 23.0 mph 28.8 mph N/A   Partly Cloudy
4:45 PM 91.4 °F 98.4 °F 71.6 °F 52% 29.82 in 10.0 mi South 25.3 mph 31.1 mph N/A   Partly Cloudy
5:00 PM 89.6 °F 96.2 °F 71.6 °F 55% 29.81 in 9.0 mi South 20.7 mph 28.8 mph N/A   Clear
5:20 PM 89.6 °F 96.2 °F 71.6 °F 55% 29.82 in 9.0 mi South 21.9 mph 26.5 mph N/A Thunderstorm Partly Cloudy
5:40 PM 87.8 °F 93.8 °F 71.6 °F 58% 29.85 in 8.0 mi SSE 18.4 mph 23.0 mph N/A   Partly Cloudy
6:00 PM 86.0 °F 93.4 °F 73.4 °F 66% 29.85 in 9.0 mi SE 16.1 mph 23.0 mph N/A Thunderstorm Partly Cloudy
6:20 PM 86.0 °F 93.4 °F 73.4 °F 66% 29.82 in 9.0 mi SSE 11.5 mph 24.2 mph N/A Thunderstorm Partly Cloudy
6:40 PM 73.4 °F - 68.0 °F 83% 29.90 in 4.0 mi NNW 27.6 mph 38.0 mph N/A Thunderstorm Unknown
7:00 PM 71.6 °F - 69.8 °F 94% 29.86 in 1.8 mi North 31.1 mph 40.3 mph 0.08 in Rain , Thunderstorm Thunderstorms and Rain